Satellite: TACSAT-3
Catalog number: 35001
Epoch time:      10090.10718089
Element set:     250
Inclination:      040.4576 deg
RA of node:       322.8731 deg
Eccentricity:    0.0020329
Arg of perigee:   142.3977 deg
Mean anomaly:     217.8263 deg
Mean motion:   15.40954274 rev/day
Decay rate:      6.680e-05 rev/day^2
Epoch rev:            4858
Checksum:              288

Satellite: PHARMSAT
Catalog number: 35002
Epoch time:      10090.02455349
Element set:     237
Inclination:      040.4712 deg
RA of node:       321.6711 deg
Eccentricity:    0.0023349
Arg of perigee:   145.3305 deg
Mean anomaly:     214.9038 deg
Mean motion:   15.41548974 rev/day
Decay rate:      6.177e-05 rev/day^2
Epoch rev:            4858
Checksum:              274

Satellite: HAWKSAT1
Catalog number: 35003
Epoch time:      10090.84848311
Element set:     252
Inclination:      040.4639 deg
RA of node:       313.5267 deg
Eccentricity:    0.0021735
Arg of perigee:   162.2466 deg
Mean anomaly:     197.9067 deg
Mean motion:   15.43826248 rev/day
Decay rate:     1.1983e-04 rev/day^2
Epoch rev:            4875
Checksum:              301

Satellite: CP6
Catalog number: 35004
Epoch time:      10089.84602553
Element set:     244
Inclination:      040.4633 deg
RA of node:       319.1301 deg
Eccentricity:    0.0020544
Arg of perigee:   156.5817 deg
Mean anomaly:     203.5878 deg
Mean motion:   15.44339136 rev/day
Decay rate:     1.4385e-04 rev/day^2
Epoch rev:            4859
Checksum:              291

Satellite: AEROCUB3
Catalog number: 35005
Epoch time:      10090.86157126
Element set:     261
Inclination:      040.4773 deg
RA of node:       313.0800 deg
Eccentricity:    0.0018262
Arg of perigee:   168.4213 deg
Mean anomaly:     191.7004 deg
Mean motion:   15.46435179 rev/day
Decay rate:     2.9500e-04 rev/day^2
Epoch rev:            4875
Checksum:              269

Satellite: DRAGNSAT
Catalog number: 35690
Epoch time:      10076.22711312
Element set:     316
Inclination:      051.6170 deg
RA of node:       315.4586 deg
Eccentricity:    0.0004999
Arg of perigee:   310.9891 deg
Mean anomaly:     057.3269 deg
Mean motion:   16.42150010 rev/day
Decay rate:   5.715194e-02 rev/day^2
Epoch rev:            3656
Checksum:              289

Satellite: POLLUX
Catalog number: 35693
Epoch time:      10087.99866888
Element set:     352
Inclination:      051.6099 deg
RA of node:       254.5746 deg
Eccentricity:    0.0006270
Arg of perigee:   294.4866 deg
Mean anomaly:     097.5899 deg
Mean motion:   16.52338462 rev/day
Decay rate:  2.3496735e-01 rev/day^2
Epoch rev:            3839
Checksum:              384

Satellite: CASTOR
Catalog number: 35694
Epoch time:      10090.86272591
Element set:     249
Inclination:      051.6379 deg
RA of node:       250.8722 deg
Eccentricity:    0.0003444
Arg of perigee:   258.7590 deg
Mean anomaly:     101.3029 deg
Mean motion:   15.91622703 rev/day
Decay rate:     5.1595e-04 rev/day^2
Epoch rev:            3870
Checksum:              302

Satellite: METEOR-M
Catalog number: 35865
Epoch time:      10090.65505578
Element set:     163
Inclination:      098.7679 deg
RA of node:       144.9777 deg
Eccentricity:    0.0001614
Arg of perigee:   222.6701 deg
Mean anomaly:     137.4307 deg
Mean motion:   14.21829321 rev/day
Decay rate:       1.76e-06 rev/day^2
Epoch rev:            2770
Checksum:              303

Satellite: RS-38
Catalog number: 35869
Epoch time:      10090.77551285
Element set:     166
Inclination:      098.7661 deg
RA of node:       145.1231 deg
Eccentricity:    0.0003938
Arg of perigee:   223.2140 deg
Mean anomaly:     136.8684 deg
Mean motion:   14.21978195 rev/day
Decay rate:       1.76e-06 rev/day^2
Epoch rev:            2772
Checksum:              321

/EX




More information about the Keps mailing list